STARLINK-36132

Last updated on Fri Dec 19 2025 00:02:09 GMT+0000 (Coordinated Universal Time)

1 67028U 25293AB 25351.83335648 -.01207009 46094-3 -24769-2 0 9997 2 67028 69.9927 308.9796 0004113 266.9729 158.8076 15.99161897 2383
UTC large
Height (km)
Speed (km/s)
/
Latitude / Longitude
Inclination (degrees)
Orbital Period (minutes)
Azimuth
Elevation
Range (km)
Doppler Factor

Next 0 passes for location: London (51.5072 / 0.1276)

Sorry there are no passes over London.